| time (UTC) | temp F | wind direction | speed knots | gust knots | rain 1hr in | rain 24hr in | rain mn in | humidity % | barometer mb |
| 20260504214502 | 80 | 360 | 0.0 | 1.7 | 0.00 | 0.00 | 0.00 | 65 | 1008.1 |
| 20260504213100 | 79 | 360 | 0.0 | 0.9 | 0.00 | 0.00 | 0.00 | 64 | 1008.2 |
| 20260504211558 | 78 | 360 | 0.0 | 0.9 | 0.00 | 0.00 | 0.00 | 65 | 1008.3 |
| 20260504210108 | 78 | 360 | 0.0 | 0.9 | 0.00 | 0.00 | 0.00 | 65 | 1008.3 |
| 20260504204601 | 79 | 360 | 0.0 | 0.9 | 0.00 | 0.00 | 0.00 | 65 | 1008.4 |
| 20260504203053 | 79 | 360 | 0.0 | 1.7 | 0.00 | 0.00 | 0.00 | 67 | 1008.5 |
| 20260504201551 | 78 | 360 | 0.0 | 0.9 | 0.00 | 0.00 | 0.00 | 69 | 1008.5 |
| 20260504200046 | 77 | 360 | 0.0 | 0.9 | 0.00 | 0.00 | 0.00 | 71 | 1008.6 |
| 20260504194601 | 77 | 360 | 0.0 | 1.7 | 0.00 | 0.00 | 0.00 | 71 | 1008.6 |
| 20260504193042 | 76 | 360 | 0.0 | 0.9 | 0.00 | 0.00 | 0.00 | 72 | 1008.6 |
| 20260504191546 | 75 | 360 | 0.0 | 0.9 | 0.00 | 0.00 | 0.00 | 73 | 1008.6 |
| 20260504190044 | 75 | 360 | 0.0 | 0.9 | 0.00 | 0.00 | 0.00 | 73 | 1008.8 |
| 20260504184539 | 75 | 360 | 0.0 | 0.9 | 0.00 | 0.00 | 0.00 | 76 | 1008.8 |
| 20260504183033 | 75 | 360 | 0.0 | 0.9 | 0.00 | 0.00 | 0.00 | 75 | 1008.7 |
| 20260504181502 | 74 | 360 | 0.0 | 0.9 | 0.00 | 0.00 | 0.00 | 75 | 1008.8 |
| 20260504180001 | 74 | 360 | 0.0 | 1.7 | 0.00 | 0.00 | 0.00 | 74 | 1008.8 |
| 20260504174533 | 75 | 360 | 0.0 | 0.9 | 0.00 | 0.00 | 0.00 | 72 | 1008.6 |
| 20260504173033 | 73 | 5 | 0.0 | 0.0 | 0.00 | 0.00 | 0.00 | 68 | 1008.7 |
| 20260504171521 | 72 | 32 | 0.0 | 0.9 | 0.00 | 0.00 | 0.00 | 71 | 1008.6 |
| 20260504120107 | 54 | 138 | 0.0 | 0.0 | 0.00 | 0.00 | 0.00 | 99 | 1007.9 |
| 20260504081512 | 60 | 360 | 0.0 | 0.0 | 0.00 | 0.00 | 0.00 | 92 | 1007.7 |
| 20260504050022 | 65 | 150 | 0.0 | 0.0 | 0.00 | 0.00 | 0.00 | 85 | 1007.9 |
| 20260504044522 | 66 | 360 | 0.0 | 0.0 | 0.00 | 0.00 | 0.00 | 85 | 1008.0 |
| 20260504043019 | 66 | 159 | 0.0 | 0.0 | 0.00 | 0.00 | 0.00 | 83 | 1007.9 |
| 20260504041518 | 66 | 159 | 0.0 | 0.0 | 0.00 | 0.00 | 0.00 | 84 | 1007.8 |
| 20260504040018 | 67 | 159 | 0.0 | 0.0 | 0.00 | 0.00 | 0.00 | 85 | 1007.8 |
| 20260504034531 | 68 | 360 | 0.0 | 0.0 | 0.00 | 0.00 | 0.00 | 83 | 1007.7 |
| 20260504033018 | 70 | 160 | 0.0 | 0.0 | 0.00 | 0.00 | 0.00 | 79 | 1007.8 |
| 20260504031514 | 71 | 160 | 0.0 | 0.0 | 0.00 | 0.00 | 0.00 | 77 | 1007.7 |
| 20260504030013 | 73 | 147 | 0.0 | 0.0 | 0.00 | 0.00 | 0.00 | 75 | 1007.7 |
| 20260504024513 | 74 | 360 | 0.0 | 0.0 | 0.00 | 0.00 | 0.00 | 74 | 1007.7 |
| 20260504023009 | 74 | 209 | 0.0 | 0.0 | 0.00 | 0.00 | 0.00 | 72 | 1007.7 |
| 20260504021508 | 76 | 211 | 0.0 | 0.0 | 0.00 | 0.00 | 0.00 | 71 | 1007.8 |
| 20260504020005 | 76 | 212 | 0.0 | 0.0 | 0.00 | 0.00 | 0.00 | 70 | 1008.1 |
| 20260504014515 | 78 | 202 | 0.0 | 0.0 | 0.00 | 0.00 | 0.00 | 68 | 1008.1 |
| 20260504013003 | 80 | 360 | 0.0 | 0.0 | 0.00 | 0.00 | 0.00 | 69 | 1008.2 |
| 20260504011600 | 80 | 239 | 0.0 | 0.0 | 0.00 | 0.00 | 0.00 | 59 | 1008.3 |
| 20260504010120 | 80 | 360 | 0.0 | 0.0 | 0.00 | 0.00 | 0.00 | 64 | 1008.5 |
| 20260504004557 | 79 | 236 | 0.0 | 0.0 | 0.00 | 0.00 | 0.00 | 70 | 1008.6 |
| 20260504003054 | 81 | 262 | 0.0 | 0.0 | 0.00 | 0.00 | 0.00 | 63 | 1008.8 |
| 20260504001608 | 81 | 360 | 0.0 | 0.0 | 0.00 | 0.00 | 0.00 | 62 | 1008.9 |
| 20260504000053 | 81 | 360 | 0.0 | 0.9 | 0.00 | 0.00 | 0.00 | 62 | 1009.0 |
| 20260503234549 | 81 | 360 | 0.0 | 0.9 | 0.00 | 0.00 | 0.00 | 62 | 1009.2 |
| 20260503233045 | 81 | 360 | 0.0 | 0.0 | 0.00 | 0.00 | 0.00 | 64 | 1009.3 |
| 20260503231548 | 81 | 262 | 0.0 | 0.0 | 0.00 | 0.00 | 0.00 | 64 | 1009.4 |
| 20260503230038 | 79 | 360 | 0.0 | 0.9 | 0.00 | 0.00 | 0.00 | 67 | 1009.8 |
| 20260503224536 | 80 | 267 | 0.0 | 1.7 | 0.00 | 0.00 | 0.00 | 65 | 1009.9 |
| 20260503223033 | 80 | 360 | 0.0 | 0.9 | 0.00 | 0.00 | 0.00 | 64 | 1010.1 |
| 20260503221534 | 78 | 273 | 0.0 | 1.7 | 0.00 | 0.00 | 0.00 | 65 | 1010.2 |
| 20260503220036 | 79 | 360 | 0.0 | 0.9 | 0.00 | 0.00 | 0.00 | 64 | 1010.3 |